Location: Sihaung
(22.8641°N, 94.0549°E)
Time: 17:54:37
(UTC+00:00)

Cosmos 2360 Rocket - Pass Details

Date: 03 March 2021
Orbit: 832 x 846 km, 71.0° (Epoch: 13 April)

Event Time Altitude Azimuth Distance (km) Brightness Sun altitude
Rises 22:29:40 0° 352° (N) 3,403 5.3 -22.3°
Reaches altitude 10° 22:32:16 10° 360° (N) 2,466 4.6 -21.7°
Maximum altitude 22:37:34 41° 69° (ENE) 1,210 3.5 -20.4°
Drops below altitude 10° 22:42:51 10° 139° (SE) 2,454 5.1 -19.2°
Sets 22:45:25 0° 146° (SE) 3,385 5.8 -18.6°
